1330390225913,0.000152048
1330390285913,0.000152275
1330390345913,0.000152411
1330390405913,0.000151856
1330390465913,0.000149796
1330393825924,0.000148304
1330393885924,0.000148321
1330393945924,0.000150095
1330394005924,0.000150336
1330394065924,0.000150919
1330397425935,0.000153538
1330397485935,0.000151955
1330397545935,0.000151218
1330397605935,0.000151583
1330397665935,0.000150949
1330401025946,0.000147982
1330401085946,0.000147055
1330401145946,0.000147722
1330401205946,0.000149748
1330401265946,0.000152125
1330404625957,0.000148139
1330404685957,0.000147831
1330404745957,0.000148299
1330404805957,0.000148622
1330404865957,0.000148709
1330408225968,0.000146623
1330408285968,0.000147889
1330408345968,0.000148783
1330408405968,0.000149419
1330408465968,0.000149871
1330411825980,0.000150869
1330411885980,0.000147651
1330411945980,0.000148549
1330412005980,0.000148226
1330412065980,0.000147660
1330415425991,0.000146842
1330415485991,0.000147193
1330415545991,0.000146157
1330415605991,0.000147981
1330415665991,0.000146512
1330419026002,0.000146655
1330419086002,0.000146924
1330419146002,0.000145720
1330419206002,0.000146795
1330419266002,0.000146730
1330422626014,0.000147778
1330422686013,0.000146677
1330422746013,0.000147200
1330422806013,0.000147438
1330422866013,0.000146878
1330426226025,0.000144937
1330426286025,0.000147778
1330426346025,0.000146283
1330426406025,0.000146608
1330426466025,0.000145281
1330429826036,0.000145757
1330429886036,0.000144503
1330429946036,0.000145241
1330430006036,0.000146369
1330430066036,0.000145951
1330433426047,0.000148827
1330433486047,0.000148730
1330433546047,0.000148827
1330433606047,0.000146245
1330433666047,0.000147703
1330437026058,0.000147198
1330437086058,0.000147905
1330437146058,0.000145433
1330437206058,0.000147741
1330437266058,0.000146275
1330437326058,0.000146101
1330437386058,0.000145407
1330437446058,0.000146099
1330437506058,0.000145478
1330437566058,0.000144827
1330437626069,0.000146060
1330437686069,0.000145832
1330437746069,0.000145403
1330437806069,0.000146737
1330437866069,0.000146468
1330437926069,0.000145665
1330437986069,0.000147420
1330438046069,0.000146847
1330438106069,0.000144049
1330438166069,0.000145405
1330438226069,0.000146579
1330438286069,0.000148083
1330438346069,0.000146313
1330438406069,0.000146653
1330438466069,0.000148579
1330438526069,0.000147355
1330438586069,0.000145455
1330438646069,0.000145279
1330438706069,0.000145898
1330438766069,0.000145728
1330438826069,0.000146402
1330438886069,0.000145504
1330438946069,0.000144520
1330439006069,0.000145485
1330439066069,0.000145663
1330439126069,0.000145015
1330439186069,0.000143942
1330439246069,0.000143654
1330439306069,0.000146711
1330439366069,0.000144479
1330439426069,0.000146161
1330439486069,0.000146595
1330439546069,0.000144656
1330439606069,0.000144070
1330439666069,0.000145720
1330439726069,0.000147584
1330439786069,0.000143590
1330439846069,0.000145471
1330439906069,0.000144450
1330439966069,0.000146701
1330440026069,0.000144990
1330440086069,0.000145578
1330440146069,0.000145870
1330440206069,0.000147320
1330440266069,0.000144972
1330440326069,0.000145314
1330440386069,0.000145923
1330440446069,0.000145297
1330440506069,0.000144681
1330440566069,0.000146560
1330440626069,0.000146386
1330440686069,0.000145978
1330440746069,0.000144606
1330440806069,0.000146495
1330440866069,0.000145766
1330440926069,0.000148083
1330440986069,0.000147270
1330441046069,0.000147515
1330441106069,0.000146928
1330441166069,0.000147784
1330441226080,0.000147064
1330441286080,0.000146030
1330441346080,0.000145998
1330441406080,0.000146066
1330441466080,0.000145334
1330441526080,0.000146207
1330441586080,0.000144909
1330441646080,0.000145489
1330441706080,0.000146098
1330441766080,0.000146363
1330441826080,0.000145818
1330441886080,0.000147006
1330441946080,0.000145882
1330442006080,0.000145423
1330442066080,0.000146976
1330442126080,0.000146036
1330442186080,0.000145780
1330442246080,0.000145880
1330442306080,0.000145385
1330442366080,0.000145464
1330442426080,0.000143590
1330442486080,0.000144633
1330442546080,0.000145171
1330442606080,0.000145592
1330442666080,0.000145633
1330442726080,0.000144655
1330442786080,0.000145758
1330442846080,0.000144767
1330442906080,0.000146221
1330442966080,0.000145647
1330443026080,0.000147115
1330443086080,0.000145610
1330443146080,0.000146703
1330443206080,0.000145638
1330443266080,0.000146329
1330443326080,0.000145932
1330443386080,0.000146117
1330443446080,0.000145987
1330443506080,0.000145107
1330443566080,0.000146568
1330443626080,0.000145403
1330443686080,0.000147617
1330443746080,0.000145291
1330443806080,0.000146068
1330443866080,0.000145874
1330443926080,0.000146457
1330443986080,0.000146408
1330444046080,0.000145710
1330444106080,0.000145950
1330444166080,0.000148429
1330444226080,0.000146087
1330444286080,0.000146623
1330444346080,0.000147411
1330444406080,0.000145522
1330444466080,0.000145806
1330444526080,0.000148224
1330444586080,0.000147256
1330444646080,0.000146287
1330444706080,0.000144977
1330444766080,0.000145956
1330444826091,0.000147350
1330444886091,0.000145570
1330444946091,0.000147599
1330445006091,0.000146755
1330445066091,0.000147020
1330445126091,0.000145952
1330445186091,0.000148412
1330445246091,0.000150166
1330445306091,0.000149435
1330445366091,0.000150411
1330445426091,0.000149229
1330445486091,0.000148689
1330445546091,0.000147591
1330445606091,0.000147126
1330445666091,0.000147052
1330445726091,0.000146741
1330445786091,0.000147380
1330445846091,0.000146612
1330445906091,0.000146186
1330445966091,0.000146113
1330446026091,0.000143511
1330446086091,0.000144631
1330446146091,0.000143987
1330446206091,0.000146840
1330446266091,0.000146574
1330446326091,0.000147163
1330446386091,0.000147369
1330446446091,0.000147575
1330446506091,0.000147287
1330446566091,0.000146540
1330446626091,0.000147355
1330446686091,0.000148532
1330446746091,0.000150322
1330446806091,0.000151728
1330446866091,0.000149844
1330446926091,0.000146900
1330446986091,0.000147977
1330447046091,0.000147929
1330447106091,0.000147531
1330447166091,0.000148420
1330447226091,0.000145832
1330447286091,0.000146893
1330447346091,0.000145947
1330447406091,0.000146372
1330447466091,0.000146165
1330447526091,0.000146480
1330447586091,0.000145112
1330447646091,0.000147390
1330447706091,0.000146132
1330447766091,0.000146823
1330447826091,0.000147828
1330447886091,0.000146661
1330447946091,0.000146926
1330448006091,0.000146203
1330448066091,0.000145971
1330451426102,0.000149391
1330451486102,0.000148052
1330451546102,0.000148914
1330451606102,0.000148753
1330451666102,0.000149181
1330455026113,0.000149713
1330455086113,0.000148167
1330455146113,0.000147143
1330455206113,0.000147034
1330455266113,0.000146538
1330458626123,0.000147888
1330458686123,0.000148391
1330458746123,0.000148475
1330458806123,0.000146314
1330458866123,0.000149790
1330462226134,0.000148453
1330462286134,0.000149024
1330462346134,0.000148821
1330462406134,0.000149020
1330462466134,0.000150692
1330465826145,0.000148399
1330465886145,0.000148337
1330465946145,0.000148580
1330466006145,0.000148514
1330466066145,0.000147581
1330469426155,0.000148363
1330469486155,0.000149088
1330469546155,0.000146782
1330469606155,0.000147993
1330469666155,0.000148245
1330473026166,0.000150957
1330473086166,0.000149618
1330473146166,0.000151280
1330473206166,0.000150516
1330473266166,0.000152599
